Location: Unspecified
(0.0000°N, 0.0000°E)
Time: 14:12:48
(UTC+01:00)

NOSS 3-3 (A) - Visible Passes

Search period start: 27 March 2015 00:00
Search period end: 06 April 2015 01:00
Orbit: 960 x 1253 km, 63.4° (Epoch: 25 March)

Date Brightness Start Highest point End Pass type
(mag) Time Alt. Az. Time Alt. Az. Time Alt. Az.
27 Mar 6.6 20:20:01 10° WSW 20:24:23 19° WNW 20:28:28 10° NNW visible
28 Mar 6.3 06:04:24 10° N 06:11:05 33° ENE 06:18:00 10° SE visible
28 Mar 5.6 19:33:54 10° SW 19:39:40 37° WNW 19:45:21 10° N visible
29 Mar 7.0 06:21:37 10° NNE 06:26:15 18° ENE 06:31:26 10° ESE visible
30 Mar 4.7 07:24:55 10° NNW 07:32:43 82° ENE 07:40:33 10° SSE visible
30 Mar 7.1 20:59:09 10° W 21:01:26 12° WNW 21:03:10 10° NW visible
31 Mar 5.5 06:40:43 10° N 06:48:03 47° ENE 06:55:31 10° SE visible
01 Apr 6.4 05:57:13 10° NNE 06:03:18 26° ENE 06:09:43 10° ESE visible
02 Apr 7.0 05:15:12 10° NE 05:18:24 14° ENE 05:22:20 10° E visible
02 Apr 4.5 07:01:50 10° NNW 07:09:38 73° WSW 07:17:25 10° SSE visible
03 Apr 4.8 06:17:17 10° NNW 06:24:59 67° ENE 06:32:45 10° SSE visible
04 Apr 5.7 05:33:20 10° N 05:40:18 38° ENE 05:47:28 10° SE visible
04 Apr 5.3 07:24:39 10° WNW 07:31:18 29° WSW 07:37:40 10° S visible
05 Apr 6.5 04:50:14 10° NNE 04:55:30 21° ENE 05:01:14 10° ESE visible
05 Apr 4.6 06:39:00 10° NW 06:46:33 51° WSW 06:54:03 10° S visible
